When you browse on this site, cookies collect data to enhance your experience and personalize the content and advertising you see.
Visit our Privacy Policy to learn more. By continuing to use the site, you agree to this use of cookies and data.
  • In Norway
  • List of Countries
  • For 7 days
  • Water Temperature
  • Satellite Maps
  • Weather Map
  • Weather Widgets
  • user-avatar
    Login

    Hourly Weather Wiktoria

    Today, 22 March, Friday

    Time Temperature Precipitation Wind Pressure Humidity
    00:00 +22°C° 0.1 mm 3 mps 749 mmHg 66%
    01:00 +22°C° 0.1 mm 3 mps 749 mmHg 68%
    02:00 +22°C° 0.4 mm 3 mps 749 mmHg 69%
    03:00 +21°C° 0.4 mm 3 mps 748 mmHg 70%
    04:00 +21°C° 0 mm 3 mps 748 mmHg 73%
    05:00 +21°C° 0.4 mm 3 mps 748 mmHg 73%
    06:00 +21°C° 0.4 mm 4 mps 749 mmHg 74%
    07:00 +21°C° 0.4 mm 5 mps 749 mmHg 75%
    08:00 +23°C° 0 mm 5 mps 749 mmHg 69%
    09:00 +25°C° 0 mm 5 mps 749 mmHg 64%
    10:00 +27°C° 0 mm 6 mps 749 mmHg 58%
    11:00 +29°C° 0 mm 5 mps 749 mmHg 51%
    12:00 +32°C° 0 mm 4 mps 748 mmHg 45%
    13:00 +33°C° 0 mm 3 mps 748 mmHg 38%
    14:00 +34°C° 0 mm 3 mps 747 mmHg 35%
    15:00 +34°C° 0 mm 2 mps 747 mmHg 31%
    16:00 +34°C° 0 mm 1 mps 746 mmHg 28%
    17:00 +32°C° 0 mm 2 mps 746 mmHg 32%
    18:00 +31°C° 0 mm 2 mps 746 mmHg 37%
    19:00 +29°C° 0 mm 3 mps 746 mmHg 41%
    20:00 +28°C° 0 mm 3 mps 746 mmHg 45%
    21:00 +27°C° 0 mm 4 mps 747 mmHg 49%
    22:00 +26°C° 0 mm 4 mps 747 mmHg 52%
    23:00 +26°C° 0 mm 5 mps 746 mmHg 53%

    Tomorrow, 23 March, Saturday

    Time Temperature Precipitation Wind Pressure Humidity
    00:00 +25°C° 0 mm 5 mps 746 mmHg 54%
    01:00 +24°C° 0 mm 6 mps 746 mmHg 55%
    02:00 +24°C° 0 mm 6 mps 746 mmHg 58%
    03:00 +23°C° 0 mm 6 mps 745 mmHg 61%
    04:00 +22°C° 0 mm 6 mps 745 mmHg 64%
    05:00 +22°C° 0 mm 6 mps 745 mmHg 63%
    06:00 +22°C° 0 mm 7 mps 745 mmHg 62%
    07:00 +23°C° 0 mm 7 mps 745 mmHg 61%
    08:00 +24°C° 0 mm 7 mps 745 mmHg 55%
    09:00 +27°C° 0 mm 7 mps 744 mmHg 49%
    10:00 +28°C° 0 mm 8 mps 744 mmHg 43%
    11:00 +32°C° 0 mm 7 mps 744 mmHg 37%
    12:00 +34°C° 0 mm 7 mps 743 mmHg 30%
    13:00 +36°C° 0 mm 7 mps 743 mmHg 24%
    14:00 +36°C° 0 mm 7 mps 742 mmHg 23%
    15:00 +38°C° 0 mm 7 mps 742 mmHg 22%
    16:00 +38°C° 0 mm 6 mps 741 mmHg 21%
    17:00 +35°C° 0 mm 6 mps 742 mmHg 23%
    18:00 +33°C° 0 mm 5 mps 742 mmHg 25%
    19:00 +30°C° 0 mm 4 mps 743 mmHg 27%
    20:00 +29°C° 0 mm 4 mps 744 mmHg 28%
    21:00 +28°C° 0 mm 4 mps 744 mmHg 30%
    22:00 +27°C° 0 mm 3 mps 745 mmHg 32%
    23:00 +26°C° 0 mm 3 mps 745 mmHg 41%

    Day after tomorrow, 24 March, Sunday

    Time Temperature Precipitation Wind Pressure Humidity
    00:00 +24°C° 0 mm 3 mps 746 mmHg 51%
    01:00 +23°C° 0 mm 2 mps 746 mmHg 61%
    02:00 +23°C° 0 mm 2 mps 746 mmHg 64%
    03:00 +23°C° 0 mm 1 mps 746 mmHg 66%
    04:00 +23°C° 0 mm 1 mps 746 mmHg 69%
    05:00 +23°C° 0 mm 1 mps 746 mmHg 69%
    06:00 +23°C° 0 mm 2 mps 746 mmHg 69%
    07:00 +23°C° 0 mm 2 mps 747 mmHg 68%
    08:00 +22°C° 0 mm 3 mps 747 mmHg 64%
    09:00 +23°C° 0 mm 4 mps 747 mmHg 59%
    10:00 +25°C° 0 mm 5 mps 747 mmHg 55%
    11:00 +26°C° 0 mm 5 mps 746 mmHg 53%
    12:00 +27°C° 0 mm 5 mps 746 mmHg 52%
    13:00 +27°C° 0 mm 6 mps 746 mmHg 51%
    14:00 +26°C° 0.3 mm 6 mps 745 mmHg 60%
    15:00 +23°C° 0.3 mm 6 mps 745 mmHg 69%
    16:00 +22°C° 0.3 mm 6 mps 745 mmHg 79%
    17:00 +21°C° 0.6 mm 6 mps 745 mmHg 82%
    18:00 +21°C° 0.6 mm 6 mps 745 mmHg 84%
    19:00 +21°C° 0.6 mm 6 mps 744 mmHg 87%
    20:00 +21°C° 0.2 mm 6 mps 744 mmHg 87%
    21:00 +20°C° 0.2 mm 6 mps 744 mmHg 86%
    22:00 +20°C° 0.2 mm 7 mps 744 mmHg 86%
    23:00 +21°C° 0.9 mm 6 mps 743 mmHg 85%

    25 March, Monday

    Time Temperature Precipitation Wind Pressure Humidity
    00:00 +21°C° 0.9 mm 6 mps 743 mmHg 85%
    01:00 +21°C° 0.9 mm 6 mps 742 mmHg 84%
    02:00 +21°C° 0.2 mm 6 mps 742 mmHg 83%
    03:00 +21°C° 0.2 mm 6 mps 741 mmHg 82%
    04:00 +21°C° 0.2 mm 6 mps 741 mmHg 80%
    05:00 +21°C° 0.3 mm 6 mps 742 mmHg 78%
    06:00 +21°C° 0.3 mm 6 mps 742 mmHg 76%
    07:00 +20°C° 0.3 mm 6 mps 743 mmHg 75%
    08:00 +20°C° 0 mm 7 mps 743 mmHg 67%
    09:00 +20°C° 0 mm 7 mps 744 mmHg 59%
    10:00 +20°C° 0 mm 8 mps 744 mmHg 51%
    11:00 +21°C° 0 mm 8 mps 744 mmHg 46%
    12:00 +21°C° 0 mm 8 mps 744 mmHg 41%
    13:00 +21°C° 0 mm 8 mps 745 mmHg 36%
    14:00 +21°C° 0 mm 8 mps 745 mmHg 37%
    15:00 +20°C° 0 mm 8 mps 745 mmHg 37%
    16:00 +18°C° 0 mm 8 mps 745 mmHg 37%
    17:00 +17°C° 0 mm 7 mps 746 mmHg 38%
    18:00 +16°C° 0 mm 6 mps 747 mmHg 39%
    19:00 +15°C° 0 mm 4 mps 748 mmHg 40%
    20:00 +14°C° 0 mm 4 mps 749 mmHg 41%
    21:00 +13°C° 0 mm 4 mps 749 mmHg 42%
    22:00 +13°C° 0 mm 4 mps 750 mmHg 43%
    23:00 +12°C° 0 mm 4 mps 750 mmHg 46%

    26 March, Tuesday

    Time Temperature Precipitation Wind Pressure Humidity
    00:00 +12°C° 0 mm 4 mps 750 mmHg 50%
    01:00 +12°C° 0 mm 4 mps 751 mmHg 54%
    02:00 +11°C° 0 mm 3 mps 751 mmHg 58%
    03:00 +11°C° 0 mm 3 mps 751 mmHg 62%
    04:00 +11°C° 0 mm 3 mps 751 mmHg 66%
    05:00 +12°C° 0 mm 2 mps 752 mmHg 70%
    06:00 +12°C° 0 mm 2 mps 753 mmHg 73%
    07:00 +12°C° 0 mm 2 mps 753 mmHg 77%
    08:00 +13°C° 0 mm 3 mps 754 mmHg 69%
    09:00 +15°C° 0 mm 4 mps 754 mmHg 60%
    10:00 +17°C° 0 mm 5 mps 755 mmHg 52%
    11:00 +19°C° 0 mm 5 mps 755 mmHg 48%
    12:00 +19°C° 0 mm 5 mps 754 mmHg 45%
    13:00 +20°C° 0 mm 5 mps 754 mmHg 41%
    14:00 +20°C° 0 mm 5 mps 754 mmHg 39%
    15:00 +20°C° 0 mm 6 mps 754 mmHg 38%
    16:00 +20°C° 0 mm 6 mps 754 mmHg 36%
    17:00 +19°C° 0 mm 6 mps 754 mmHg 42%
    18:00 +16°C° 0 mm 6 mps 755 mmHg 47%
    19:00 +15°C° 0 mm 5 mps 755 mmHg 52%
    20:00 +14°C° 0 mm 6 mps 756 mmHg 55%
    21:00 +13°C° 0 mm 6 mps 757 mmHg 58%
    22:00 +13°C° 0 mm 6 mps 757 mmHg 61%
    23:00 +12°C° 0 mm 5 mps 757 mmHg 62%

    27 March, Wednesday

    Time Temperature Precipitation Wind Pressure Humidity
    00:00 +12°C° 0 mm 5 mps 757 mmHg 63%
    01:00 +11°C° 0 mm 4 mps 757 mmHg 64%
    02:00 +11°C° 0 mm 4 mps 757 mmHg 67%
    03:00 +10°C° 0 mm 3 mps 757 mmHg 70%
    04:00 +10°C° 0 mm 3 mps 757 mmHg 72%
    05:00 +10°C° 0 mm 2 mps 757 mmHg 71%
    06:00 +10°C° 0 mm 2 mps 758 mmHg 70%
    07:00 +10°C° 0 mm 2 mps 758 mmHg 68%
    08:00 +14°C° 0 mm 2 mps 758 mmHg 60%
    09:00 +16°C° 0 mm 2 mps 758 mmHg 53%
    10:00 +19°C° 0 mm 2 mps 758 mmHg 45%
    11:00 +20°C° 0 mm 2 mps 757 mmHg 41%
    12:00 +23°C° 0 mm 2 mps 757 mmHg 38%
    13:00 +24°C° 0 mm 2 mps 756 mmHg 35%
    14:00 +25°C° 0 mm 2 mps 755 mmHg 33%
    15:00 +25°C° 0 mm 2 mps 755 mmHg 32%
    16:00 +26°C° 0 mm 1 mps 754 mmHg 31%
    17:00 +24°C° 0 mm 1 mps 754 mmHg 34%
    18:00 +22°C° 0 mm 1 mps 755 mmHg 38%
    19:00 +21°C° 0 mm 1 mps 755 mmHg 41%
    20:00 +20°C° 0 mm 1 mps 755 mmHg 43%
    21:00 +20°C° 0 mm 1 mps 755 mmHg 44%
    22:00 +19°C° 0 mm 1 mps 756 mmHg 45%
    23:00 +17°C° 0 mm 2 mps 755 mmHg 49%
    Show more